Regional Weather Roundup
Issued by NWS Cleveland, OH

Home | Current Version | Previous Version | Graphics & Text | Print | Product List | Glossary On
Versions: 1 2 3 4 5 6 7 8 9 10 11 12 13 14 15 16 17 18 19 20 21 22 23 24 25 26 27 28 29 30 31 32 33 34 35 36 37 38 39 40 41 42 43 44 45 46 47 48 49 50
000
ASUS41 KCLE 280512
RWRCLE
OHIO REGIONAL WEATHER ROUNDUP
NATIONAL WEATHER SERVICE WILMINGTON, OH
100 AM EDT FRI APR 28 2017

NOTE: "FAIR" INDICATES FEW OR NO CLOUDS BELOW 12,000 FEET WITH NO
SIGNIFICANT WEATHER AND/OR OBSTRUCTIONS TO VISIBILITY.

OHZ001>008-015>018-024>027-034-035-043-044-280600-
   NORTHWEST OHIO

CITY           SKY/WX    TMP DP  RH WIND       PRES   REMARKS
DEFIANCE       CLOUDY    50  41  71 VRB7      29.89R
FINDLAY        FAIR      48  41  76 SW8       29.88R
TOLEDO EXPRESS MOCLDY    50  42  74 W14       29.86R
TOLEDO EXEC    FAIR      50  43  77 W12       29.86R
LIMA           FAIR      47  44  90 W8        29.89R
$$

OHZ009>014-019>023-028>033-038-089-280600-
   NORTHEAST OHIO

CITY           SKY/WX    TMP DP  RH WIND       PRES   REMARKS
CLE-HOPKINS    FAIR      51  40  65 SW5       29.90R
CLE-LAKEFRONT  FAIR      52  42  69 SW10      29.88R
CUY CO. ARPT   NOT AVBL
LORAIN-ELYRIA  FAIR      50  39  66 W6        29.88R
ASHTABULA      FAIR      51  43  74 W9        29.90R
AKRON-CANTON   FAIR      50  42  74 NW7       29.89R
WOOSTER        FAIR      46  42  86 CALM      29.89R
MANSFIELD      FAIR      48  42  80 W5        29.88R
YOUNGSTOWN     FAIR      50  45  83 NW6       29.88R
$$

OHZ042-051>053-060>062-070>072-077>081-280600-
  SOUTHWEST OHIO

CITY           SKY/WX    TMP DP  RH WIND       PRES   REMARKS
CINC-COVINGTON FAIR      50  46  86 W6        29.90R
CINC-LUNKEN    FAIR      49  49 100 CALM      29.91R
HAMILTON       FAIR      46  44  93 CALM      29.91R
DAYTON         FAIR      48  43  82 W8        29.90R
WRIGHT-PAT AFB FAIR      50  46  85 W3        29.90R
DAYTON GENERAL FAIR      52  46  80 W3        29.89R
WILMINGTON     FAIR      50  46  86 W6        29.90R
$$

OHZ036-037-039>041-045>050-054>059-063>069-073>076-082>088-280600-
  CENTRAL AND SOUTHEAST OHIO

CITY           SKY/WX    TMP DP  RH WIND       PRES   REMARKS
COLUMBUS       FAIR      54  45  71 SW3       29.88R
OSU AIRPORT    FAIR      49  44  83 W9        29.88R
BOLTON FIELD   FAIR      45  43  91 SW7       29.90R
RICKENBACK AFB FAIR      50  45  83 W3        29.89R
NEWARK         FAIR      51  45  79 CALM      29.89R
MARION         FAIR      50  42  74 W7        29.89R
LANCASTER      FAIR      54  45  71 W3        29.90R
ZANESVILLE     FAIR      55  44  66 S3        29.90R
NEW PHILLY     FAIR      56  46  69 NW6       29.90R
$$




USA.gov is the U.S. government's official web portal to all federal, state and local government web resources and services.